DW7214 Weather Reports


time (UTC)temp
F
wind
direction
speed
knots
gust
knots
rain 1hr
in
rain 24hr
in
rain mn
in
humidity
%
barometer
mb
20260906234523 65 147 0.9 5.2 0.00 0.28 0.28 80 1018.0
20260906233024 65 160 1.7 5.2 0.00 0.28 0.28 79 1018.0
20260906231526 66 67 1.7 5.2 0.00 0.28 0.28 77 1018.0
20260906230027 65 204 0.9 5.2 0.00 0.28 0.28 79 1018.0
20260906224526 66 45 0.9 3.5 0.00 0.28 0.28 78 1017.9
20260906223029 66 180 0.9 6.1 0.00 0.28 0.28 80 1017.9
20260906221531 65 188 0.0 2.6 0.00 0.28 0.28 81 1017.9
20260906220020 65 106 0.9 5.2 0.00 0.28 0.28 80 1018.0
20260906214517 64 33 0.0 5.2 0.00 0.28 0.28 82 1017.9
20260906213014 65 30 1.7 5.2 0.00 0.28 0.28 83 1017.9
20260906211519 64 111 0.9 3.5 0.00 0.28 0.28 84 1017.8
20260906210005 63 124 0.0 1.7 0.00 0.28 0.28 85 1017.8
20260906204510 63 53 0.0 1.7 0.00 0.28 0.28 88 1017.8
20260906203012 62 101 0.0 2.6 0.00 0.28 0.28 86 1017.7
20260906201519 61 10 0.0 1.7 0.01 0.28 0.28 88 1017.8
20260906200027 61 244 0.0 0.0 0.01 0.28 0.28 87 1017.8
20260906194516 60 126 0.0 0.0 0.01 0.28 0.28 91 1017.8
20260906193012 60 134 0.0 0.0 0.01 0.28 0.28 92 1017.8
20260906191516 59 32 0.0 0.0 0.01 0.27 0.27 91 1017.9
20260906190024 58 351 0.0 0.0 0.02 0.27 0.27 93 1018.0
20260906184536 58 34 0.0 2.6 0.04 0.27 0.27 93 1017.9
20260906183010 58 54 0.0 2.6 0.06 0.27 0.27 94 1017.9
20260906181535 58 42 0.9 2.6 0.08 0.26 0.26 94 1017.8
20260906180018 57 310 1.7 2.6 0.08 0.25 0.25 94 1017.7
20260906174528 58 343 0.0 1.7 0.07 0.23 0.23 94 1017.4
20260906173008 57 17 0.0 0.0 0.07 0.21 0.21 95 1017.1
20260906171514 57 40 0.0 1.7 0.05 0.18 0.18 95 1017.1
20260906170021 57 257 0.0 0.0 0.04 0.17 0.17 95 1017.0
20260906164526 57 257 0.0 0.0 0.04 0.16 0.16 95 1017.0
20260906163030 57 257 0.0 0.0 0.03 0.14 0.14 95 1017.0
20260906161510 56 257 0.0 0.0 0.04 0.13 0.13 95 1017.2
20260906160016 56 303 0.0 0.0 0.05 0.13 0.13 95 1017.1
20260906154523 56 229 1.7 2.6 0.06 0.12 0.12 95 1016.9
20260906153032 56 228 0.0 1.7 0.06 0.11 0.11 95 1017.0
20260906151530 55 244 0.0 1.7 0.05 0.09 0.09 95 1017.0
20260906150013 55 118 0.0 0.0 0.04 0.08 0.08 95 1017.1
20260906144521 55 118 0.0 0.0 0.03 0.06 0.06 95 1017.0
20260906143024 55 341 0.0 0.0 0.02 0.05 0.05 95 1016.7
20260906141531 55 341 0.0 0.0 0.01 0.04 0.04 95 1016.5
20260906140031 55 341 0.0 0.0 0.02 0.04 0.04 95 1016.2
20260906134520 55 293 0.0 3.5 0.02 0.03 0.03 95 1016.2
20260906133035 55 123 0.0 0.0 0.02 0.03 0.03 95 1016.0
20260906131529 55 207 0.0 0.0 0.02 0.03 0.03 95 1015.9
20260906130008 55 207 0.0 0.0 0.01 0.02 0.02 95 1016.0
20260906124515 55 207 0.0 0.0 0.00 0.01 0.01 95 1016.0
20260906123033 55 207 0.0 0.0 0.00 0.01 0.01 94 1016.2
20260906121529 55 225 0.0 0.0 0.00 0.01 0.01 94 1016.2
20260906120010 55 219 0.0 0.0 0.00 0.01 0.01 94 1016.3
20260906114532 55 5 0.0 0.0 0.01 0.01 0.01 94 1016.2
20260906113026 55 13 0.0 0.0 0.01 0.01 0.01 94 1016.2
20260906111529 55 106 0.0 0.0 0.01 0.01 0.01 93 1016.0
20260906110029 55 352 0.0 2.6 0.01 0.01 0.01 93 1016.0
20260906104514 55 213 0.0 0.0 0.00 0.00 0.00 94 1016.0
20260906103019 55 218 0.0 0.0 0.00 0.00 0.00 94 1015.9
20260906101523 54 223 0.0 1.7 0.00 0.00 0.00 94 1015.9
20260906100031 54 225 0.0 0.0 0.00 0.00 0.00 94 1015.9
20260906094529 54 225 0.0 0.0 0.00 0.00 0.00 94 1016.0
20260906093016 54 227 0.0 0.0 0.00 0.00 0.00 93 1015.9
20260906091531 54 227 0.0 0.0 0.00 0.00 0.00 94 1015.8
20260906090027 54 225 0.0 0.0 0.00 0.00 0.00 93 1015.8
20260906084535 54 236 0.0 0.0 0.00 0.00 0.00 93 1015.8
20260906083032 54 236 0.0 0.0 0.00 0.00 0.00 93 1015.8
20260906081521 54 236 0.0 0.0 0.00 0.00 0.00 93 1015.7
20260906080022 54 236 0.0 0.0 0.00 0.00 0.00 93 1015.8
20260906074530 54 236 0.0 1.7 0.00 0.00 0.00 93 1015.8
20260906073030 54 244 0.0 0.0 0.00 0.00 0.00 93 1016.0
20260906071533 55 248 0.0 1.7 0.00 0.00 0.00 93 1016.1
20260906070025 55 249 0.0 0.0 0.00 0.00 0.00 92 1016.2
20260906064528 55 257 0.0 0.0 0.00 0.00 0.00 92 1016.2
20260906063031 55 219 0.0 0.0 0.00 0.00 0.00 92 1016.2
20260906061534 55 208 0.0 0.0 0.00 0.00 0.00 92 1016.2
20260906060019 55 208 0.0 0.0 0.00 0.00 0.00 91 1016.1
20260906054528 55 208 0.0 0.0 0.00 0.00 0.00 91 1016.3
20260906053032 55 208 0.0 0.0 0.00 0.00 0.00 90 1016.3
20260906051530 56 209 0.0 1.7 0.00 0.00 0.00 90 1016.3
20260906050037 56 242 0.0 1.7 0.00 0.00 0.00 90 1016.4
20260906044525 56 250 0.0 1.7 0.00 0.00 0.00 89 1016.5
20260906043009 57 244 0.0 1.7 0.00 0.00 0.00 89 1016.6
20260906041510 57 234 0.0 0.0 0.00 0.00 0.00 89 1016.6
20260906040026 57 237 0.0 0.0 0.00 0.00 0.00 88 1016.5
20260906034527 58 216 1.7 3.5 0.00 0.00 0.00 87 1016.4
20260906033025 58 244 0.0 2.6 0.00 0.00 0.00 86 1016.3
20260906031508 59 253 0.9 2.6 0.00 0.00 0.00 85 1016.1
20260906030009 60 220 0.9 2.6 0.00 0.00 0.00 83 1016.2
20260906024518 61 246 0.9 2.6 0.00 0.00 0.00 82 1016.2
20260906023023 62 215 1.7 3.5 0.00 0.00 0.00 80 1016.3
20260906021531 63 226 0.0 1.7 0.00 0.00 0.00 76 1016.4
20260906020009 64 208 0.9 2.6 0.00 0.00 0.00 73 1016.4
20260906014519 65 217 0.0 1.7 0.00 0.00 0.00 72 1016.4
20260906013020 66 211 0.0 1.7 0.00 0.00 0.00 70 1016.2
20260906011525 67 170 0.0 0.0 0.00 0.00 0.00 69 1016.2
20260906010006 68 96 0.0 0.0 0.00 0.00 0.00 68 1016.2
20260906004511 68 76 0.0 2.6 0.00 0.00 0.00 61 1016.2
20260906003022 68 297 0.0 2.6 0.00 0.00 0.00 62 1016.2
20260906001535 67 188 0.0 0.9 0.00 0.00 0.00 69 1016.3
20260906000030 67 232 0.0 2.6 0.00 0.00 0.00 64 1016.2